Location: Observatoire de Paris
(48.8363°N, 2.3365°E)
Time: 14:20:58
(UTC+01:00)

O/OREOS (USA 219) - Visible Passes

Search period start: 24 September 2021 00:00
Search period end: 04 October 2021 00:00
Orbit: 621 x 646 km, 72.0° (Epoch: 22 May)

Date Brightness Start Highest point End Pass type
(mag) Time Alt. Az. Time Alt. Az. Time Alt. Az.
24 Sep ? 02:24:17 12° ENE 02:24:17 12° ENE 02:24:50 10° ENE visible
24 Sep ? 04:01:45 58° N 04:01:45 58° N 04:05:33 10° NNE visible
24 Sep ? 05:39:13 10° WNW 05:41:20 13° NW 05:43:31 10° NNW visible
25 Sep ? 02:46:14 19° ENE 02:46:14 19° ENE 02:47:52 10° NE visible
25 Sep ? 04:23:42 35° NW 04:23:42 35° NW 04:27:26 10° NNE visible
26 Sep ? 03:08:09 27° NE 03:08:09 27° NE 03:10:16 10° NNE visible
26 Sep ? 04:45:37 20° NW 04:45:39 20° NW 04:49:02 10° N visible
27 Sep ? 03:30:02 29° NNE 03:30:02 29° NNE 03:32:21 10° NNE visible
27 Sep ? 05:07:29 12° NW 05:08:13 12° NW 05:10:07 10° NNW visible
28 Sep ? 02:14:25 12° NE 02:14:25 12° NE 02:14:46 10° NE visible
28 Sep ? 03:51:53 24° NNW 03:51:53 24° NNW 03:54:11 10° N visible
29 Sep ? 02:36:14 15° NNE 02:36:14 15° NNE 02:37:06 10° NNE visible
29 Sep ? 04:13:42 17° NNW 04:13:42 17° NNW 04:15:45 10° N visible
30 Sep ? 02:58:02 17° NNE 02:58:02 17° NNE 02:59:08 10° NNE visible
30 Sep ? 04:35:30 11° NNW 04:35:30 11° NNW 04:36:38 10° NNW visible
01 Oct ? 03:19:49 16° N 03:19:49 16° N 03:20:56 10° N visible
02 Oct ? 03:41:35 13° NNW 03:41:35 13° NNW 03:42:27 10° N visible
03 Oct ? 02:25:52 10° NNE 02:25:52 10° NNE 02:25:55 10° NNE visible
